Weather observations for the past three days for
Moose Lake Carlton County Airport
Imperial (Metric)
Date Time (cdt) Wind (mph) Vis. (mi.) Weather Sky Cond. Temperature (ºF) Relative Humidity Wind Chill (°F) Heat Index (°F) Pressure Precipitation (in)
Air Dwpt 6 hour altimeter (in) sea level (mb) 1 hr 3 hr 6 hr
Max. Min.
17 22:15 Calm 10.00 Fair CLR 55.4 51.8 88% 30.18 0.0
17 21:55 Calm 10.00 Fair CLR 57.2 53.6 88% 30.18 0.0
17 21:35 Calm 10.00 Fair CLR 57.2 53.6 88% 30.17 0.0
17 21:15 Calm 10.00 Fair CLR 59 53.6 82% 30.17 0.0
17 20:55 Calm 10.00 Fair CLR 60.8 53.6 77% 30.17 0.0
17 20:35 Calm 10.00 Fair CLR 62.6 55.4 77% 30.17 0.0
17 20:15 Calm 10.00 Fair CLR 66.2 53.6 64% 30.17 0.0
17 19:55 Calm 10.00 Partly Cloudy SCT070 68 50 53% 30.16 0.0
17 19:35 N 3 10.00 Partly Cloudy SCT070 69.8 50 50% 30.16 0.0
17 19:15 N 3 10.00 Fair CLR 69.8 50 50% 30.17 0.0
17 18:55 N 3 10.00 Partly Cloudy SCT070 68 50 53% 30.16 0.0
17 18:35 NW 5 10.00 Partly Cloudy SCT070 69.8 50 50% 30.16 0.0
17 18:15 NW 3 10.00 Mostly Cloudy SCT048 SCT060 BKN070 71.6 50 47% 30.16 0.0
17 17:55 NW 5 10.00 Mostly Cloudy SCT048 BKN070 69.8 50 50% 30.16 0.0
17 17:35 N 3 10.00 Overcast SCT050 OVC070 69.8 50 50% 30.16 0.0
17 17:15 N 6 10.00 Mostly Cloudy BKN070 69.8 48.2 46% 30.16 0.0
17 16:55 NW 3 10.00 Mostly Cloudy SCT049 BKN060 69.8 50 50% 30.17 0.0
17 16:35 N 5 10.00 Mostly Cloudy BKN049 BKN060 69.8 50 50% 30.17 0.0
17 16:15 NW 5 10.00 Mostly Cloudy SCT047 BKN060 71.6 50 47% 30.17 0.0
17 15:55 N 6 10.00 Mostly Cloudy BKN047 BKN060 71.6 50 47% 30.17 0.0
17 15:35 N 6 10.00 Mostly Cloudy SCT047 BKN060 69.8 48.2 46% 30.17 0.0
17 15:15 NW 6 10.00 Overcast SCT047 OVC060 69.8 50 50% 30.17 0.0
17 14:55 N 8 10.00 Overcast SCT046 OVC060 69.8 50 50% 30.17 0.0
17 14:35 N 7 10.00 Mostly Cloudy SCT046 BKN060 69.8 46.4 43% 30.17 0.0
17 14:15 N 6 10.00 Mostly Cloudy BKN060 69.8 50 50% 30.17 0.0
17 13:55 N 5 10.00 Overcast SCT043 OVC060 68 48.2 49% 30.17 0.0
17 13:35 N 7 10.00 Mostly Cloudy SCT043 BKN060 69.8 48.2 46% 30.17 0.0
17 13:15 N 7 10.00 Overcast SCT043 OVC060 69.8 50 50% 30.17 0.0
17 12:55 N 6 10.00 Overcast SCT043 OVC060 69.8 50 50% 30.17 0.0
17 12:35 N 7 10.00 Overcast SCT043 OVC060 68 48.2 49% 30.17 0.0
17 12:15 N 6 10.00 Overcast OVC060 68 48.2 49% 30.17 0.0
17 11:55 N 6 10.00 Overcast SCT040 BKN050 OVC060 64.4 48.2 56% 30.17 0.0
17 11:35 N 8 10.00 Mostly Cloudy SCT040 BKN050 68 48.2 49% 30.17 0.0
17 11:15 N 6 10.00 Mostly Cloudy SCT037 SCT044 BKN050 66.2 48.2 52% 30.17 0.0
17 10:55 N 7 10.00 Mostly Cloudy SCT034 SCT040 BKN046 66.2 50 56% 30.17 0.0
17 10:35 N 5 10.00 Overcast BKN034 OVC045 64.4 50 60% 30.17 0.0
17 10:15 N 6 10.00 Overcast BKN032 OVC038 64.4 50 60% 30.16 0.0
17 09:55 NE 3 10.00 Mostly Cloudy BKN032 62.6 50 64% 30.16 0.0
17 09:35 N 5 10.00 Mostly Cloudy SCT026 BKN032 60.8 50 68% 30.15 0.0
17 09:15 N 5 10.00 Fair CLR 60.8 50 68% 30.16 0.0
17 08:55 N 5 10.00 Fair CLR 60.8 50 68% 30.15 0.0
17 08:35 N 5 10.00 Fair CLR 59 50 72% 30.14 0.0
17 08:15 N 3 10.00 Fair CLR 57.2 50 77% 30.14 0.0
17 07:35 N 3 10.00 Fair CLR 55.4 50 82% 30.12 0.0
17 07:15 N 3 10.00 Fair CLR 55.4 50 82% 30.12 0.0
17 06:55 Calm 10.00 Fair CLR 53.6 50 88% 30.11 0.0
17 06:35 N 3 10.00 Fair CLR 53.6 50 88% 30.1 0.0
17 06:15 N 5 10.00 Fair CLR 53.6 50 88% 30.09 0.0
17 05:55 N 5 10.00 Fair CLR 51.8 50 94% 30.08 0.0
17 05:35 N 3 10.00 Fair CLR 51.8 48.2 88% 30.07 0.0
17 05:15 Calm 10.00 Fair CLR 51.8 48.2 88% 30.07 0.0
17 04:55 Calm 10.00 Fair CLR 51.8 48.2 88% 30.06 0.0
17 04:35 Calm 10.00 Fair CLR 53.6 50 88% 30.05 0.0
17 04:15 Calm 10.00 Fair CLR 53.6 50 88% 30.04 0.0
17 03:55 NW 5 10.00 Fair CLR 53.6 50 88% 30.03 0.0
17 03:35 N 6 10.00 Fair CLR 53.6 50 88% 30.02 0.0
17 03:15 NW 7 10.00 Fair CLR 55.4 50 82% 30.02 0.0
17 02:55 N 6 10.00 Fair CLR 55.4 50 82% 30.02 0.0
17 02:35 NW 3 10.00 Fair CLR 55.4 50 82% 30.02 0.0
17 02:15 Calm 10.00 Fair CLR 55.4 50 82% 30.01 0.0
17 01:55 NW 3 10.00 Fair CLR 55.4 50 82% 30.01 0.0
17 01:35 NW 3 10.00 Fair CLR 55.4 50 82% 30.01 0.0
17 01:15 NW 3 10.00 Fair CLR 55.4 50 82% 30 0.0
17 00:55 Calm 10.00 Partly Cloudy SCT085 55.4 50 82% 30 0.0
17 00:35 Calm 10.00 Partly Cloudy SCT085 57.2 50 77% 30 0.0
17 00:15 NW 3 10.00 Partly Cloudy SCT080 57.2 50 77% 29.99 0.0
16 23:55 Calm 10.00 Overcast OVC080 59 50 72% 29.99 0.0
16 23:35 N 5 10.00 Overcast OVC080 59 50 72% 29.99 0.0
16 23:15 Calm 10.00 Mostly Cloudy BKN080 57.2 50 77% 29.98 0.0
16 22:55 Calm 10.00 Fair CLR 59 50 72% 29.97 0.0
16 22:35 Calm 10.00 Fair CLR 60.8 50 68% 29.97 0.0
16 22:15 N 7 10.00 Fair CLR 62.6 48.2 60% 29.97 0.0
16 21:55 NW 5 10.00 Partly Cloudy SCT090 62.6 50 64% 29.96 0.0
16 21:35 NW 5 10.00 Partly Cloudy SCT090 62.6 50 64% 29.96 0.0
16 21:15 NW 3 10.00 Fair CLR 64.4 50 60% 29.96 0.0
16 20:55 NW 3 10.00 Partly Cloudy SCT090 64.4 50 60% 29.95 0.0
16 20:35 N 3 10.00 Partly Cloudy SCT090 68 50 53% 29.94 0.0
16 20:15 N 5 10.00 Mostly Cloudy BKN090 69.8 50 50% 29.93 0.0
16 19:55 N 7 10.00 Overcast OVC085 69.8 50 50% 29.93 0.0
16 19:35 NW 3 10.00 Mostly Cloudy BKN085 69.8 48.2 46% 29.92 0.0
16 19:15 N 6 10.00 Fair CLR 71.6 50 47% 29.92 0.0
16 18:55 W 7 10.00 Partly Cloudy SCT080 73.4 50 44% 29.92 0.0
16 18:35 NW 3 10.00 Mostly Cloudy SCT080 BKN090 71.6 50 47% 29.92 0.0
16 18:15 Calm 10.00 Mostly Cloudy SCT080 BKN090 71.6 50 47% 29.92 0.0
16 17:55 NW 8 10.00 Mostly Cloudy SCT080 BKN090 73.4 51.8 47% 29.92 0.0
16 17:35 NW 6 10.00 Partly Cloudy SCT055 SCT075 SCT090 71.6 50 47% 29.92 0.0
16 17:15 NW 5 10.00 Fair CLR 73.4 51.8 47% 29.91 0.0
16 16:55 NW 7 10.00 Fair CLR 73.4 51.8 47% 29.91 0.0
16 16:35 N 3 10.00 Mostly Cloudy SCT085 BKN110 73.4 53.6 50% 29.91 0.0
16 16:15 N 7 10.00 Overcast SCT075 OVC085 69.8 53.6 57% 29.92 0.0
16 15:55 NW 9 G 16 10.00 Overcast SCT075 OVC095 71.6 50 47% 29.91 0.0
16 15:35 NW 7 10.00 Mostly Cloudy BKN095 73.4 50 44% 29.9 0.0
16 15:15 W 5 10.00 Mostly Cloudy SCT070 SCT080 BKN095 75.2 50 41% 78 29.89 0.0
16 14:55 W 7 10.00 Partly Cloudy SCT060 SCT095 75.2 50 41% 78 29.89 0.0
16 14:35 NW 9 10.00 Partly Cloudy SCT085 77 50 39% 78 29.89 0.0
16 14:15 NW 12 G 18 10.00 Mostly Cloudy SCT060 BKN095 75.2 50 41% 78 29.9 0.0
16 13:35 NW 6 10.00 Partly Cloudy SCT060 75.2 50 41% 78 29.9 0.0
16 13:15 W 5 10.00 Fair CLR 75.2 48.2 39% 77 29.9 0.0
16 12:55 N 12 G 17 10.00 Fair CLR 73.4 46.4 38% 29.9 0.0
16 12:35 NW 8 10.00 Fair CLR 73.4 50 44% 29.9 0.0
16 12:15 NW 7 G 17 10.00 Partly Cloudy SCT050 73.4 50 44% 29.9 0.0
16 11:55 NW 9 10.00 Mostly Cloudy BKN050 73.4 51.8 47% 29.9 0.0
16 11:35 NW 10 10.00 Partly Cloudy SCT048 73.4 51.8 47% 29.9 0.0
16 11:15 N 8 G 16 10.00 Partly Cloudy SCT046 71.6 50 47% 29.89 0.0
16 10:55 NW 7 10.00 Partly Cloudy SCT046 71.6 51.8 50% 29.89 0.0
16 10:35 N 6 10.00 Fair CLR 71.6 51.8 50% 29.89 0.0
16 10:15 N 6 10.00 Fair CLR 69.8 51.8 53% 29.89 0.0
16 09:55 N 5 10.00 Fair CLR 69.8 55.4 60% 29.89 0.0
16 09:35 N 7 10.00 Partly Cloudy SCT065 69.8 55.4 60% 29.89 0.0
16 09:15 N 5 10.00 Partly Cloudy SCT055 SCT080 68 53.6 60% 29.88 0.0
16 08:55 N 6 10.00 Overcast SCT043 BKN055 OVC080 68 55.4 64% 29.88 0.0
16 08:35 N 5 10.00 Mostly Cloudy SCT070 BKN080 68 55.4 64% 29.87 0.0
16 08:15 NW 6 10.00 Fair CLR 64.4 57.2 78% 29.87 0.0
16 07:55 N 6 10.00 Fair CLR 62.6 57.2 83% 29.87 0.0
16 07:35 NW 6 10.00 Fair CLR 62.6 57.2 83% 29.86 0.0
16 07:15 NW 7 10.00 Fair CLR 62.6 57.2 83% 29.85 0.0
16 06:55 NW 3 10.00 Fair CLR 60.8 55.4 83% 29.84 0.0
16 06:35 NW 5 10.00 Fair CLR 60.8 55.4 83% 29.84 0.0
16 06:15 Calm 10.00 Fair CLR 60.8 55.4 83% 29.84 0.0
16 05:55 NW 3 10.00 Fair CLR 59 55.4 88% 29.83 0.0
16 05:35 Calm 10.00 Fair CLR 59 55.4 88% 29.83 0.0
16 05:15 NW 3 10.00 Fair CLR 60.8 55.4 83% 29.83 0.0
16 04:55 NW 3 10.00 Fair CLR 59 55.4 88% 29.83 0.0
16 04:35 Calm 10.00 Fair CLR 57.2 53.6 88% 29.83 0.0
16 04:15 Calm 10.00 Fair CLR 59 55.4 88% 29.82 0.0
16 03:55 Calm 10.00 Fair CLR 59 55.4 88% 29.83 0.0
16 03:35 Calm 10.00 Fair CLR 59 55.4 88% 29.83 0.0
16 03:15 Calm 10.00 Fair CLR 59 55.4 88% 29.83 0.0
16 02:55 Calm 10.00 Fair CLR 60.8 55.4 83% 29.84 0.0
16 02:35 Calm 10.00 Fair CLR 60.8 55.4 83% 29.84 0.0
16 02:15 N 3 10.00 Fair CLR 62.6 55.4 77% 29.84 0.0
16 01:55 Calm 10.00 Fair CLR 62.6 55.4 77% 29.83 0.0
16 01:35 N 3 10.00 Partly Cloudy SCT035 64.4 55.4 73% 29.83 0.0
16 01:15 N 3 10.00 Partly Cloudy SCT035 64.4 57.2 78% 29.83 0.0
16 00:55 N 3 10.00 Partly Cloudy SCT075 66.2 57.2 73% 29.83 0.0
16 00:35 N 3 10.00 Overcast OVC070 68 59 73% 29.82 0.0
16 00:15 NW 3 10.00 Overcast SCT060 OVC070 68 59 73% 29.82 0.0
15 23:55 Calm 10.00 Overcast OVC050 69.8 59 69% 29.81 0.0
15 23:35 Calm 10.00 Overcast OVC050 69.8 59 69% 29.8 0.0
15 23:15 Calm 10.00 Overcast BKN048 OVC070 69.8 59 69% 29.8 0.0
15 22:55 Calm 10.00 Overcast OVC044 69.8 59 69% 29.79 0.0
15 22:35 Calm 10.00 Overcast BKN040 BKN046 OVC065 69.8 59 69% 29.79 0.0
15 22:15 N 3 10.00 Overcast SCT050 OVC065 69.8 57.2 64% 29.78 0.0
15 21:55 N 5 10.00 Partly Cloudy SCT048 SCT055 69.8 57.2 64% 29.77 0.0
15 21:35 NW 5 10.00 Fair CLR 69.8 57.2 64% 29.76 0.0
15 21:15 NW 5 10.00 Partly Cloudy SCT050 69.8 57.2 64% 29.75 0.0
15 20:55 NW 5 10.00 Fair CLR 71.6 55.4 57% 29.74 0.0
15 20:35 NW 5 10.00 Fair CLR 73.4 55.4 53% 29.74 0.0
15 20:15 NW 5 10.00 Fair CLR 75.2 55.4 50% 78 29.73 0.0
15 19:55 NW 6 10.00 Fair CLR 77 55.4 47% 79 29.72 0.0
15 19:35 NW 8 10.00 Fair CLR 77 57.2 51% 79 29.71 0.0
15 19:15 N 10 10.00 Fair CLR 78.8 59 51% 80 29.71 0.0
15 18:55 N 6 10.00 Partly Cloudy SCT044 SCT050 78.8 60.8 54% 80 29.72 0.0
15 18:35 N 6 10.00 Partly Cloudy SCT044 SCT050 80.6 60.8 51% 81 29.72 0.0
15 18:15 N 10 10.00 Fair CLR 80.6 60.8 51% 81 29.72 0.0
15 17:55 NW 9 10.00 Partly Cloudy SCT043 80.6 62.6 54% 82 29.73 0.0
15 17:35 NW 8 10.00 Partly Cloudy SCT043 82.4 62.6 51% 83 29.72 0.0
15 17:15 NW 8 10.00 Fair CLR 82.4 62.6 51% 83 29.72 0.0
15 16:55 NW 7 10.00 Partly Cloudy SCT037 SCT090 82.4 64.4 55% 84 29.72 0.0
15 16:35 NW 7 G 17 10.00 Mostly Cloudy SCT035 SCT060 BKN090 82.4 64.4 55% 84 29.72 0.0
15 16:15 NW 8 G 16 10.00 Mostly Cloudy SCT037 SCT042 BKN060 80.6 64.4 58% 82 29.72 0.0
15 15:55 W 6 10.00 Mostly Cloudy BKN037 BKN046 BKN055 82.4 64.4 55% 84 29.72 0.0
15 15:35 W 7 10.00 Mostly Cloudy BKN037 BKN044 BKN055 82.4 64.4 55% 84 29.72 0.0
15 15:15 SW 10 10.00 Partly Cloudy SCT039 SCT070 82.4 64.4 55% 84 29.72 0.0
15 14:55 W 10 10.00 Mostly Cloudy BKN070 80.6 64.4 58% 82 29.72 0.0
15 14:35 W 5 10.00 Overcast SCT035 SCT050 OVC070 80.6 64.4 58% 82 29.72 0.0
15 14:15 W 6 10.00 Overcast BKN037 OVC047 80.6 64.4 58% 82 29.72 0.0
15 13:55 SW 7 10.00 Overcast BKN039 BKN046 OVC060 80.6 62.6 54% 82 29.72 0.0
15 13:35 SW 10 10.00 Overcast SCT039 OVC060 80.6 62.6 54% 82 29.73 0.0
15 13:15 W 5 10.00 Overcast OVC060 78.8 62.6 58% 80 29.73 0.0
15 12:55 W 7 10.00 Overcast OVC060 78.8 62.6 58% 80 29.73 0.0
15 12:35 SW 8 10.00 Mostly Cloudy SCT043 BKN060 BKN070 78.8 62.6 58% 80 29.74 0.0
15 12:15 SW 10 G 18 10.00 Mostly Cloudy SCT043 SCT070 BKN100 82.4 62.6 51% 83 29.74 0.0
15 11:55 SW 8 10.00 Mostly Cloudy BKN100 BKN120 80.6 62.6 54% 82 29.75 0.0
15 11:35 SW 10 G 17 10.00 Partly Cloudy SCT100 80.6 62.6 54% 82 29.75 0.0
15 11:15 SW 13 G 18 10.00 Partly Cloudy SCT035 SCT042 80.6 62.6 54% 82 29.76 0.0
15 10:55 SW 8 10.00 Partly Cloudy SCT035 SCT044 80.6 64.4 58% 82 29.76 0.0
15 10:35 SW 9 10.00 Partly Cloudy SCT120 78.8 64.4 61% 81 29.76 0.0
15 10:15 SW 7 10.00 Partly Cloudy SCT120 77 64.4 65% 79 29.77 0.0
15 09:55 S 7 10.00 Fair CLR 75.2 62.6 65% 77 29.77 0.0
15 09:35 S 6 10.00 Fair CLR 75.2 62.6 65% 77 29.77 0.0
15 09:15 S 6 10.00 Fair CLR 73.4 62.6 69% 29.79 0.0
15 08:55 SW 3 10.00 Fair CLR 71.6 62.6 73% 29.8 0.0
15 08:35 Calm 10.00 Fair CLR 69.8 62.6 78% 29.79 0.0
15 08:15 Calm 10.00 Fair CLR 66.2 62.6 88% 29.8 0.0
15 07:55 Calm 7.00 Mostly Cloudy SCT036 SCT050 BKN110 64.4 62.6 94% 29.81 0.0
15 07:35 Calm 3.00 Light Rain SCT090 BKN110 62.6 60.8 94% 29.81 0.0
15 06:55 Calm 7.00 Fair CLR 60.8 59 94% 29.84 0.0
15 06:35 Calm 7.00 Fair CLR 60.8 59 94% 29.84 0.0
15 06:15 Calm 5.00 Fog/Mist CLR 60.8 59 94% 29.82 0.0
15 05:55 Calm 10.00 Fair CLR 59 55.4 88% 29.82 0.0
15 05:35 Calm 7.00 Fair CLR 59 57.2 94% 29.82 0.0
15 05:15 Calm 7.00 Fair CLR 59 55.4 88% 29.83 0.0
15 04:55 Calm 1.75 Fog/Mist VV007 59 55.4 88% 29.83 0.0
15 04:35 Calm 5.00 Fog/Mist CLR 59 55.4 88% 29.82 0.0
15 04:15 Calm 5.00 Fog/Mist CLR 59 55.4 88% 29.83 0.0
15 03:55 Calm 7.00 Fair CLR 59 57.2 94% 29.83 0.0
15 03:35 Calm 7.00 Fair CLR 59 55.4 88% 29.83 0.0
15 03:15 Calm 4.00 Fog/Mist CLR 60.8 57.2 88% 29.84 0.0
15 02:55 Calm 7.00 Fair CLR 60.8 57.2 88% 29.85 0.0
15 02:35 Calm 5.00 Fog/Mist CLR 60.8 57.2 88% 29.85 0.0
15 02:15 Calm 7.00 Fair CLR 60.8 59 94% 29.86 0.0
15 01:55 Calm 7.00 Fair CLR 60.8 59 94% 29.86 0.0
15 01:35 Calm 4.00 Fog/Mist CLR 60.8 59 94% 29.86 0.0
15 01:15 Calm 10.00 Fair CLR 62.6 59 88% 29.87 0.0
15 00:55 Calm 10.00 Fair CLR 62.6 59 88% 29.87 0.0
15 00:35 Calm 10.00 Fair CLR 62.6 59 88% 29.87 0.0
15 00:15 Calm 10.00 Fair CLR 62.6 59 88% 29.87 0.0
14 23:55 Calm 10.00 Fair CLR 62.6 60.8 94% 29.88 0.0
14 23:35 Calm 10.00 Fair CLR 64.4 59 83% 29.87 0.0
14 23:15 Calm 10.00 Fair CLR 64.4 60.8 88% 29.87 0.0
Date Time (cdt) Wind (mph) Vis. (mi.) Weather Sky Cond. Air Dwpt Max. Min. Relative Humidity Wind Chill (°F) Heat Index (°F) altimeter (in) sea level (mb) 1 hr 3 hr 6 hr
6 hour
Temperature (ºF) Pressure Precipitation (in)